FENGYUN 1C DEB, 36177

Orbit data source: Space-Track

FENGYUN 1C DEB, 36177 is space debris in SSO originally from a launch on Mon, 10 May 1999 UTC launched from the Taiyaun Space Center, China (TSC). Fengyun 1C debris stems from the Chinese weather satellite Fengyun-1C, which was intentionally destroyed by a Chinese anti-satellite missile in 2007. This event dramatically increased the amount of space debris, with thousands of trackable fragments posing hazards to satellites and human spaceflight. The Fengyun 1C debris cloud has become a focal point in discussions about space sustainability and the need for international regulations to prevent the creation of new debris.

Loading next visibility...
Identifier
36177, 1999-025DTA
Orbit
SSO
Country
Flag of CNCN / PRC
Related business
Manufacturer
Unknown
Mission
Spacecraft
Bus & Motor
Unknown
Mass
Unknown
Launch date (UTC)
1999-05-10 (27 years ago)
Launch vehicle
Unknown
Launch site
Taiyaun Space Center, China (TSC)
Object type
Payload
Rocket body
Debris
Shape & HBR
Unknown shape, 0.1 m
Radar Cross Section
Small (<0.1 m²)

Expand to show TLE details & history
Last TLE update: 1 month ago

TLE from 1 month ago
0 FENGYUN 1C DEB
1 36177U 99025DTA 26217.36543295  .00001005  00000-0  49182-3 0  9997
2 36177  98.6101 252.7759 0038045 247.0240 112.6921 14.19726825273714
Epoch: 2026-08-05T08:46Z
TLE epoch observation values (Epoch: 2026-08-05T08:46:13.406Z)
Latitude
-0.00003°
Longitude
167.29917°
Altitude
839.859 km
Speed
7.427 km/s
True Right ascension
16h 51m 06s
True Declination
0° 00' 00"
Sunlit
Object was in daylight at epoch
Visualization orbit readout
Latitude
Unknown
Longitude
Unknown
Altitude
Unknown
Speed
Unknown
Apparent Right ascension
Unknown
Apparent Declination
Unknown
Sunlit
N/A
Visualization observer readout
Local Sidereal Time
16:57:18
Azimuth
Unknown
Elevation
Unknown
Doppler factor
Unknown
Orbital elements
Apogee altitude
850.829 km
Perigee altitude
796.033 km
Semi-major axis
7,201.568 km
Eccentricity
0.0038
Inclination
98.6101°
RAAN
252.7759°
Arg. of periapsis
247.024°
True anomaly
113.09358°
Mean anomaly
112.6921°
Eccentric anomaly
112.89291°
Mean motion
3.55142 °/min
Orbital period
101.37 mins
BSTAR
0.00049182
Loading maneuver chart data...
Computing Atmospheric mass density...
Loading historical data...
Loading historical data...
Loading historical data...
Loading historical data...
Loading historical data...
Loading historical data...
Loading historical data...

Documentation

Showing up to 5 results
|